Weather History for KBOS - January, 2014

Change the Weather History Date:

Thursday, January 2, 2014

  Actual Average Record
Temperature  
Mean Temperature 14 °F 30 °F  
Max Temperature 26 °F 37 °F 66 °F (1890)
Min Temperature 2 °F 23 °F -3 °F (1899)
Degree Days  
Heating Degree Days 51 35  
Month to date heating degree days 92 70  
Since 1 July heating degree days 2081 2064  
Cooling Degree Days 0 0  
Month to date cooling degree days 0 0  
Year to date cooling degree days 0 0  
Moisture  
Dew Point 11 °F    
Average Humidity 69    
Maximum Humidity 88    
Minimum Humidity 50    
Precipitation  
Precipitation 0.38 in 0.11 in 2.24 in (1987)
Month to date precipitation 0.38 0.22  
Year to date precipitation 0.38 0.22  
Sea Level Pressure  
Sea Level Pressure 30.14 in    
Wind  
Wind Speed 18 mph (North)    
Max Wind Speed 32 mph    
Max Gust Speed 38 mph    
Visibility 1 miles    
Events Fog , Snow    
T = Trace of Precipitation, MM = Missing Value Source: NWS Daily Summary

Daily Weather History Graph

Daily Weather History Graph

Search for Another Location

Airport or City:

Trip Planner

Search our weather history database for the weather conditions in past years. The results will help you decide how hot, cold, wet, or windy it might be!

Date:

Astronomy

Jan. 02, 2014 Rise Set
Actual Time 7:13 AM EST 4:23 PM EST
Civil Twilight 6:41 AM EST 4:54 PM EST
Nautical Twilight 6:06 AM EST 5:30 PM EST
Astronomical Twilight 5:32 AM EST 6:04 PM EST
Moon 7:50 AM EST (1/2) 6:18 PM EST (1/2)
Length of Visible Light 10h 13m
Length of Day
9h 09m
New Moon, 2% of the Moon is Illuminated
Jan 2
New Moon
Jan 7
First Quarter
Jan 15
Full
Jan 24
Last Quarter
Jan 30
New

Hourly Weather History & Observations

Time (EST) Temp. Windchill Dew Point Humidity Pressure Visibility Wind Dir Wind Speed Gust Speed Precip Events Conditions
12:54 AM 21.0 °F 12.4 °F 10.9 °F 65% 30.36 in 4.0 mi NNE 6.9 mph - 0.00 in Snow Light Snow
1:15 AM 21.2 °F 11.7 °F 12.2 °F 68% 30.36 in 2.5 mi NNE 8.1 mph - 0.00 in Snow Light Snow
1:41 AM 19.4 °F 9.5 °F 14.0 °F 80% 30.36 in 1.8 mi NNE 8.1 mph - 0.00 in Snow Light Snow
1:54 AM 19.9 °F 10.1 °F 15.1 °F 81% 30.36 in 1.8 mi NNE 8.1 mph - 0.00 in Snow Light Snow
2:41 AM 19.4 °F 8.6 °F 15.8 °F 86% 30.35 in 2.0 mi NNE 9.2 mph - 0.01 in Snow Light Snow
2:54 AM 19.0 °F 8.2 °F 14.0 °F 81% 30.35 in 2.0 mi NNE 9.2 mph - 0.01 in Snow Light Snow
3:08 AM 19.4 °F 8.6 °F 14.0 °F 80% 30.35 in 1.8 mi North 9.2 mph - 0.00 in Snow Light Snow
3:54 AM 19.0 °F 8.2 °F 14.0 °F 81% 30.34 in 1.5 mi North 9.2 mph - 0.02 in Snow Light Snow
4:47 AM 19.4 °F 7.2 °F 14.0 °F 80% 30.32 in 1.8 mi North 11.5 mph - 0.01 in Snow Light Snow
4:54 AM 19.0 °F 7.5 °F 14.0 °F 81% 30.32 in 2.5 mi North 10.4 mph - 0.02 in Snow Light Snow
5:05 AM 19.4 °F 7.9 °F 14.0 °F 80% 30.33 in 3.0 mi North 10.4 mph - 0.00 in Snow Light Snow
5:44 AM 19.4 °F 6.6 °F 14.0 °F 80% 30.31 in 2.0 mi NNE 12.7 mph - 0.00 in Snow Light Snow
5:54 AM 19.0 °F 5.0 °F 14.0 °F 81% 30.31 in 1.8 mi North 15.0 mph - 0.01 in Snow Light Snow
6:16 AM 19.4 °F 7.2 °F 15.8 °F 86% 30.30 in 2.5 mi North 11.5 mph - 0.00 in Snow Light Snow
6:54 AM 19.0 °F 5.6 °F 15.1 °F 85% 30.30 in 2.5 mi North 13.8 mph - 0.01 in Snow Light Snow
6:57 AM 19.4 °F 6.0 °F 15.8 °F 86% 30.30 in 3.0 mi North 13.8 mph - 0.00 in Snow Light Snow
7:13 AM 19.4 °F 6.0 °F 15.8 °F 86% 30.30 in 2.5 mi North 13.8 mph - 0.00 in Snow Light Snow
7:54 AM 19.0 °F 5.6 °F 15.1 °F 85% 30.28 in 0.8 mi North 13.8 mph - 0.00 in Snow Light Snow
8:10 AM 19.4 °F 6.6 °F 15.8 °F 86% 30.28 in 0.5 mi North 12.7 mph - 0.01 in Snow Light Snow
8:51 AM 19.4 °F 6.6 °F 15.8 °F 86% 30.27 in 0.5 mi North 12.7 mph - 0.03 in Fog , Snow Snow
8:54 AM 19.9 °F 6.7 °F 16.0 °F 85% 30.27 in 0.5 mi NNE 13.8 mph - 0.04 in Fog , Snow Snow
9:54 AM 24.1 °F 10.1 °F 21.0 °F 88% 30.25 in 0.5 mi NE 18.4 mph - 0.03 in Fog , Snow Snow
10:24 AM 26.6 °F 11.4 °F 21.2 °F 80% 30.24 in 0.5 mi NE 25.3 mph 33.4 mph 0.01 in Snow Snow
10:54 AM 25.0 °F 10.2 °F 21.0 °F 85% 30.21 in 0.5 mi NE 21.9 mph 33.4 mph 0.01 in Fog , Snow Snow
11:17 AM 24.8 °F 8.4 °F 19.4 °F 80% 30.18 in 0.5 mi NE 27.6 mph 34.5 mph 0.00 in Fog , Snow Snow
11:31 AM 24.8 °F 8.7 °F 19.4 °F 80% 30.17 in 0.5 mi NE 26.5 mph 33.4 mph 0.00 in Fog , Snow Snow
11:54 AM 24.1 °F 8.0 °F 19.9 °F 84% 30.15 in 0.5 mi NE 25.3 mph 38.0 mph 0.00 in Snow Light Snow
12:54 PM 24.1 °F 9.0 °F 19.9 °F 84% 30.12 in 0.5 mi NE 21.9 mph 36.8 mph 0.01 in Snow Light Snow
1:30 PM 24.8 °F 7.9 °F 21.2 °F 86% 30.08 in 0.5 mi ENE 29.9 mph 35.7 mph 0.00 in Snow Light Snow
1:42 PM 26.6 °F 12.4 °F 21.2 °F 80% 30.09 in 0.5 mi NE 21.9 mph 32.2 mph 0.00 in Snow Light Snow
1:54 PM 26.1 °F 10.4 °F 21.0 °F 81% 30.08 in 0.5 mi NE 26.5 mph 32.2 mph 0.01 in Snow Light Snow
2:54 PM 19.9 °F 7.9 °F 16.0 °F 85% 30.05 in 0.5 mi North 11.5 mph 34.5 mph 0.00 in Snow Snow
3:03 PM 15.8 °F 1.4 °F 10.4 °F 79% 30.05 in 0.5 mi North 13.8 mph 19.6 mph 0.00 in Snow Snow
3:17 PM 15.8 °F 3.4 °F 10.4 °F 79% 30.06 in 0.5 mi North 10.4 mph - 0.00 in Snow Snow
3:36 PM 12.2 °F -4.3 °F 8.6 °F 85% 30.04 in 0.5 mi North 16.1 mph 21.9 mph 0.02 in Snow Snow
3:54 PM 12.0 °F -4.5 °F 8.1 °F 84% 30.02 in 0.5 mi North 16.1 mph - 0.03 in Snow Snow
4:21 PM 12.2 °F -3.1 °F 8.6 °F 85% 30.02 in 0.8 mi North 13.8 mph - 0.01 in Snow Light Snow
4:52 PM 12.2 °F -3.7 °F 8.6 °F 85% 30.02 in 1.2 mi North 15.0 mph 21.9 mph 0.02 in Snow Light Snow
4:54 PM 12.0 °F -4.0 °F 8.1 °F 84% 30.01 in 1.2 mi NNW 15.0 mph - 0.02 in Snow Light Snow
5:40 PM 10.4 °F -7.2 °F 6.8 °F 85% 30.00 in 0.2 mi North 17.3 mph - 0.01 in Snow Light Snow
5:44 PM 10.4 °F -6.6 °F 6.8 °F 85% 30.00 in 0.2 mi North 16.1 mph - 0.02 in Snow Light Snow
5:47 PM 10.4 °F -7.2 °F 6.8 °F 85% 30.00 in 0.2 mi North 17.3 mph - 0.02 in Fog , Snow Heavy Snow
5:54 PM 10.0 °F -8.6 °F 6.1 °F 84% 30.00 in 0.2 mi North 19.6 mph - 0.02 in Fog , Snow Heavy Snow
6:54 PM 8.1 °F -11.2 °F 3.0 °F 80% 30.00 in 0.2 mi North 19.6 mph - 0.03 in Fog , Snow Snow
7:54 PM 6.1 °F -13.8 °F 1.0 °F 80% 29.95 in 0.2 mi North 19.6 mph 28.8 mph 0.01 in Fog , Snow Snow
8:27 PM 6.8 °F -14.7 °F 1.4 °F 79% 29.95 in 0.2 mi North 24.2 mph 31.1 mph 0.01 in Fog , Snow Snow
8:54 PM 6.1 °F -14.3 °F 1.0 °F 80% 29.94 in 0.2 mi North 20.7 mph 28.8 mph 0.03 in Fog , Snow Snow
9:52 PM 5.0 °F -16.7 °F -0.4 °F 78% 29.89 in 0.2 mi North 23.0 mph 32.2 mph 0.02 in Fog , Snow Snow
9:54 PM 3.9 °F -17.6 °F -0.0 °F 84% 29.89 in 0.2 mi North 21.9 mph 32.2 mph 0.02 in Fog , Snow Snow
10:08 PM 3.2 °F -19.0 °F -0.4 °F 85% 29.88 in 0.2 mi North 23.0 mph 31.1 mph 0.00 in Fog , Snow Snow
10:54 PM 3.0 °F -18.8 °F -2.0 °F 80% 29.87 in 0.2 mi North 21.9 mph 33.4 mph 0.02 in Fog , Snow Snow
11:04 PM 3.2 °F -19.0 °F -2.2 °F 78% 29.86 in 0.2 mi North 23.0 mph 32.2 mph 0.01 in Fog , Snow Snow
11:40 PM 3.2 °F -19.5 °F -2.2 °F 78% 29.86 in 0.2 mi North 24.2 mph 31.1 mph 0.02 in Fog , Snow Snow
11:54 PM 1.9 °F -19.8 °F -2.9 °F 80% 29.86 in 0.2 mi North 20.7 mph 32.2 mph 0.02 in Fog , Snow Snow